Starlink 31662

operational
NORAD ID: 59584 Int'l Des: 2024-076 Owner: SPXS Country: US Constellation: starlink
LEOCIRCULAR

Über Starlink 31662

Beschreibung wird geladen...

Live-Position

3D-Globus wird geladen...

Nächste Überflüge

Höhenverlauf

Altitude vs Time

uPlot chart will show altitude changes over time

Zweizeiliger Elementsatz

1 59584U 24076W 25352.62548433 -.00001041 00000-0 -28308-4 0 9995
2 59584 42.9995 106.9182 0000939 278.9758 81.0987 15.27584262 94104
Epoch: 18. Dez. 2025 • Age: 30 hours

Aktueller Status

Höhe 486.3 km
Geschwindigkeit 7.63 km/s
Subsatellitenpunkt 40.90°N, 164.19°E
Startdatum 23. Apr. 2024
Alter 1.6 years
Typ internet

Technische Details

Klassifizierung Payload
Masse 730.00 kg
Trockenmasse 700.00 kg
Gesamtmasse 730.00 kg
Länge 0.30 m
Durchmesser 4.10 m
Spannweite 29.00 m
Form Box + pan
Hersteller SPXS
Bus-Typ Starlink V2M
Phasenstatus In Orbit
Besitzer/Staat SPXS/US

Große Konstellationen

Loading constellations...